DW2213 Weather Reports


time (UTC)temp
C
wind
direction
speed
KPH
gust
KPH
rain 1hr
cm
rain 24hr
cm
rain mn
cm
humidity
%
barometer
mb
20260507161804 20 73 1.6 8.0 0.00 0.33 0.33 73 1009.7
20260507160805 20 59 1.6 4.8 0.00 0.33 0.33 73 1009.6
20260507160305 20 31 1.6 9.7 0.00 0.33 0.33 73 1009.5
20260507155805 20 22 6.4 11.3 0.00 0.33 0.33 72 1009.4
20260507155306 20 50 3.2 14.5 0.00 0.33 0.33 72 1009.3
20260507154804 20 63 8.0 14.5 0.00 0.33 0.33 71 1009.3
20260507154305 20 78 4.8 14.5 0.00 0.33 0.33 71 1009.2
20260507153804 20 64 4.8 11.3 0.00 0.33 0.33 72 1009.2
20260507153305 20 35 4.8 14.5 0.00 0.33 0.33 71 1009.2
20260507152805 20 45 4.8 12.9 0.00 0.33 0.33 71 1009.2
20260507152306 20 17 4.8 11.3 0.00 0.33 0.33 71 1009.2
20260507151804 20 69 3.2 11.3 0.00 0.33 0.33 70 1009.2
20260507150805 20 11 6.4 16.1 0.00 0.33 0.33 70 1009.3
20260507150305 20 53 3.2 12.9 0.00 0.33 0.33 71 1009.4
20260507145307 20 29 8.0 14.5 0.00 0.33 0.33 70 1009.6
20260507144804 20 63 6.4 19.3 0.00 0.33 0.33 70 1009.5
20260507144305 20 74 8.0 14.5 0.00 0.33 0.33 70 1009.6
20260507143804 20 45 4.8 16.1 0.00 0.33 0.33 68 1009.5
20260507143305 21 21 9.7 19.3 0.00 0.33 0.33 67 1009.4
20260507142804 21 81 9.7 14.5 0.00 0.33 0.33 66 1009.5
20260507142307 21 57 4.8 19.3 0.00 0.33 0.33 65 1009.6
20260507141804 21 49 8.0 19.3 0.00 0.33 0.33 63 1009.7
20260507141304 21 100 6.4 16.1 0.00 0.33 0.33 64 1009.7
20260507140805 21 84 3.2 12.9 0.00 0.33 0.33 67 1009.7
20260507135805 21 18 6.4 20.9 0.00 0.33 0.33 67 1009.7
20260507134804 20 72 8.0 16.1 0.00 0.33 0.33 71 1009.7
20260507133805 20 55 4.8 12.9 0.00 0.33 0.33 70 1009.9
20260507133304 20 89 6.4 22.5 0.00 0.33 0.33 69 1009.9
20260507132804 20 118 4.8 12.9 0.00 0.33 0.33 68 1009.9
20260507132307 20 108 8.0 19.3 0.00 0.33 0.33 69 1010.0
20260507131805 21 49 9.7 20.9 0.00 0.33 0.33 70 1009.9
20260507130804 20 40 6.4 16.1 0.00 0.33 0.33 72 1010.0
20260507125804 20 25 6.4 19.3 0.00 0.33 0.33 76 1010.2
20260507124805 20 57 4.8 19.3 0.00 0.33 0.33 75 1010.3
20260507124304 20 49 4.8 9.7 0.00 0.33 0.33 74 1010.3
20260507123805 20 64 3.2 12.9 0.00 0.33 0.33 75 1010.4
20260507123304 20 63 3.2 14.5 0.00 0.33 0.33 76 1010.5
20260507122804 20 63 6.4 16.1 0.00 0.33 0.33 76 1010.4
20260507122307 19 51 4.8 11.3 0.00 0.33 0.33 76 1010.4
20260507121805 20 27 4.8 11.3 0.00 0.33 0.33 77 1010.6
20260507120805 20 39 8.0 19.3 0.00 0.33 0.33 78 1010.6
20260507115804 19 43 6.4 14.5 0.00 0.33 0.33 79 1010.5
20260507115307 19 29 9.7 24.1 0.00 0.33 0.33 79 1010.5
20260507114804 19 30 8.0 20.9 0.00 0.33 0.33 79 1010.6
20260507113804 19 35 8.0 16.1 0.00 0.33 0.33 81 1010.8
20260507113304 19 33 8.0 16.1 0.00 0.33 0.33 81 1010.8
20260507112307 19 20 12.9 19.3 0.00 0.33 0.33 81 1011.0
20260507111304 19 8 9.7 20.9 0.03 0.33 0.33 81 1011.1
20260507110804 19 4 11.3 20.9 0.03 0.33 0.33 81 1011.2
20260507110304 19 19 8.0 14.5 0.03 0.33 0.33 81 1011.2
20260507105804 19 23 3.2 19.3 0.30 0.33 0.33 82 1011.3
20260507105306 19 24 6.4 11.3 0.33 0.33 0.33 81 1011.4
20260507104804 19 55 4.8 12.9 0.33 0.33 0.33 81 1011.3
20260507104304 18 40 4.8 11.3 0.33 0.33 0.33 81 1011.2
20260507103804 18 58 6.4 12.9 0.33 0.33 0.33 81 1011.1
20260507102306 18 75 3.2 8.0 0.33 0.33 0.33 82 1011.2
20260507101804 18 62 4.8 14.5 0.30 0.30 0.30 83 1011.2
20260507101305 18 32 9.7 19.3 0.30 0.30 0.30 81 1011.1
20260507100805 18 38 6.4 12.9 0.30 0.30 0.30 79 1011.0
20260507100305 19 27 8.0 19.3 0.30 0.30 0.30 74 1011.0
20260507095804 20 67 9.7 25.7 0.03 0.03 0.03 72 1011.3
20260507095306 20 117 8.0 16.1 0.00 0.00 0.00 70 1011.2
20260507094805 20 87 4.8 14.5 0.00 0.00 0.00 69 1011.2
20260507094304 21 72 3.2 4.8 0.00 0.00 0.00 69 1011.3
20260507093304 21 31 6.4 14.5 0.00 0.00 0.00 67 1011.3
20260507092805 20 105 8.0 11.3 0.00 0.00 0.00 67 1011.3
20260507091804 20 110 8.0 14.5 0.00 0.00 0.00 70 1011.4
20260507091304 20 79 6.4 12.9 0.00 0.00 0.00 70 1011.4
20260507090804 20 49 3.2 11.3 0.00 0.00 0.00 70 1011.3
20260507090304 19 28 4.8 8.0 0.00 0.00 0.00 70 1011.3
20260507085804 19 302 4.8 9.7 0.00 0.00 0.00 69 1011.3
20260507085306 19 26 6.4 11.3 0.00 0.00 0.00 69 1011.3
20260507084804 19 2 3.2 11.3 0.00 0.00 0.00 68 1011.3
20260507084304 19 346 4.8 19.3 0.00 0.00 0.00 67 1011.3
20260507083805 19 318 8.0 14.5 0.00 0.00 0.00 67 1011.3
20260507083304 19 347 8.0 14.5 0.00 0.00 0.00 67 1011.3
20260507082804 18 300 4.8 11.3 0.00 0.00 0.00 67 1011.3
20260507082306 18 337 3.2 9.7 0.00 0.00 0.00 68 1011.4
20260507081805 18 308 3.2 8.0 0.00 0.00 0.00 68 1011.4
20260507081304 18 335 8.0 12.9 0.00 0.00 0.00 68 1011.4
20260507080804 18 306 4.8 9.7 0.00 0.00 0.00 69 1011.4
20260507080304 18 351 3.2 8.0 0.00 0.00 0.00 68 1011.4
20260507075307 18 347 3.2 9.7 0.00 0.00 0.00 67 1011.5
20260507074805 18 339 4.8 9.7 0.00 0.00 0.00 67 1011.5
20260507073804 18 324 4.8 8.0 0.00 0.00 0.00 67 1011.5
20260507072804 17 325 4.8 11.3 0.00 0.00 0.00 67 1011.4
20260507072306 17 325 4.8 9.7 0.00 0.00 0.00 68 1011.4
20260507071805 17 336 8.0 11.3 0.00 0.00 0.00 68 1011.4
20260507071304 17 263 3.2 8.0 0.00 0.00 0.00 70 1011.4
20260507070805 17 259 4.8 9.7 0.00 0.00 0.00 70 1011.4
20260507070304 17 243 3.2 8.0 0.00 0.00 0.00 72 1011.3
20260507065306 16 246 3.2 4.8 0.00 0.00 0.00 75 1011.3
20260507064804 16 246 3.2 4.8 0.00 0.00 0.00 76 1011.2
20260507064304 16 246 3.2 4.8 0.00 0.00 0.00 75 1011.2
20260507063805 16 246 3.2 4.8 0.00 0.00 0.00 76 1011.3
20260507062306 15 246 4.8 8.0 0.00 0.00 0.00 80 1011.2
20260507061304 15 246 0.0 4.8 0.00 0.00 0.00 81 1011.1
20260507060805 15 271 0.0 4.8 0.00 0.00 0.00 82 1011.0
20260507060305 15 246 0.0 1.6 0.00 0.00 0.00 82 1010.9
20260507055804 15 245 0.0 4.8 0.00 0.00 0.00 82 1010.8
20260507055306 15 245 3.2 4.8 0.00 0.00 0.00 82 1010.7
20260507054804 14 245 1.6 4.8 0.00 0.00 0.00 82 1010.7
20260507054304 14 246 4.8 8.0 0.00 0.00 0.00 81 1010.6
20260507053804 15 245 4.8 8.0 0.00 0.00 0.00 81 1010.6
20260507053304 15 220 3.2 4.8 0.00 0.00 0.00 80 1010.6
20260507052804 15 220 3.2 4.8 0.00 0.00 0.00 80 1010.6
20260507052306 15 220 3.2 4.8 0.00 0.00 0.00 80 1010.6
20260507051304 14 220 0.0 0.0 0.00 0.00 0.00 81 1010.7
20260507050804 14 220 0.0 0.0 0.00 0.00 0.00 81 1010.7
20260507045804 14 220 0.0 0.0 0.00 0.00 0.00 82 1010.7
20260507045306 14 220 0.0 0.0 0.00 0.00 0.00 82 1010.6
20260507044804 13 220 0.0 0.0 0.00 0.00 0.00 82 1010.6
20260507044304 13 220 0.0 3.2 0.00 0.00 0.00 81 1010.5
20260507043804 14 220 0.0 0.0 0.00 0.00 0.00 82 1010.5
20260507043304 14 220 0.0 1.6 0.00 0.00 0.00 81 1010.5
20260507042804 14 220 0.0 3.2 0.00 0.00 0.00 81 1010.4
20260507041804 14 220 1.6 3.2 0.00 0.00 0.00 81 1010.2
20260507040304 15 220 0.0 0.0 0.00 0.00 0.00 80 1010.1
20260507035805 15 220 0.0 0.0 0.00 0.00 0.00 80 1010.1
20260507035306 15 220 0.0 0.0 0.00 0.00 0.00 80 1010.2
20260507034804 15 220 1.6 4.8 0.00 0.00 0.00 80 1010.1
20260507034305 15 220 0.0 0.0 0.00 0.00 0.00 80 1010.1
20260507033305 15 220 0.0 0.0 0.00 0.00 0.00 80 1010.3
20260507032306 14 220 0.0 1.6 0.00 0.00 0.00 80 1010.4
20260507031804 15 220 0.0 1.6 0.00 0.00 0.00 80 1010.4
20260507030804 15 220 0.0 0.0 0.00 0.00 0.00 80 1010.5
20260507030304 15 220 0.0 1.6 0.00 0.00 0.00 80 1010.5
20260507025804 15 220 1.6 4.8 0.00 0.00 0.00 80 1010.5
20260507025306 15 220 0.0 3.2 0.00 0.00 0.00 81 1010.5
20260507024804 15 220 0.0 3.2 0.00 0.00 0.00 80 1010.5
20260507024304 15 220 1.6 4.8 0.00 0.00 0.00 80 1010.6
20260507023804 15 220 0.0 1.6 0.00 0.00 0.00 81 1010.5
20260507023304 15 220 0.0 3.2 0.00 0.00 0.00 80 1010.6
20260507022306 15 220 3.2 4.8 0.00 0.00 0.00 80 1010.6
20260507021804 15 220 1.6 4.8 0.00 0.00 0.00 80 1010.6
20260507021304 15 220 0.0 3.2 0.00 0.00 0.00 80 1010.6
20260507020804 15 220 0.0 3.2 0.00 0.00 0.00 81 1010.7
20260507020304 15 220 1.6 3.2 0.00 0.00 0.00 81 1010.7
20260507015804 14 220 1.6 4.8 0.00 0.00 0.00 81 1010.7
20260507015306 15 220 0.0 4.8 0.00 0.00 0.00 80 1010.7
20260507014803 15 220 1.6 4.8 0.00 0.00 0.00 80 1010.7
20260507013804 15 220 3.2 4.8 0.00 0.00 0.00 80 1010.6
20260507013304 15 220 1.6 4.8 0.00 0.00 0.00 80 1010.6
20260507012805 15 220 3.2 11.3 0.00 0.00 0.00 80 1010.6
20260507012306 15 201 4.8 8.0 0.00 0.00 0.00 80 1010.7
20260507011804 15 108 3.2 8.0 0.00 0.00 0.00 80 1010.6
20260507010304 15 108 3.2 4.8 0.00 0.00 0.00 79 1010.7
20260507005804 15 107 1.6 3.2 0.00 0.00 0.00 78 1010.7
20260507004803 15 107 1.6 3.2 0.00 0.00 0.00 77 1010.7
20260507004304 16 108 1.6 4.8 0.00 0.00 0.00 77 1010.8
20260507003804 16 107 1.6 4.8 0.00 0.00 0.00 77 1010.8
20260507003304 16 108 1.6 8.0 0.00 0.00 0.00 76 1010.9
20260507002804 16 108 3.2 8.0 0.00 0.00 0.00 76 1010.9
20260507001803 16 107 0.0 3.2 0.00 0.00 0.00 76 1010.8
20260507000804 16 107 0.0 3.2 0.00 0.00 0.00 75 1010.9
20260507000306 16 107 3.2 4.8 0.00 0.00 0.00 74 1010.9
20260506235804 16 108 1.6 3.2 0.00 0.00 0.00 74 1010.9
20260506235306 16 107 1.6 3.2 0.00 0.00 0.00 74 1010.9
20260506234804 16 108 1.6 3.2 0.00 0.00 0.00 74 1011.0
20260506234303 16 107 0.0 3.2 0.00 0.00 0.00 74 1011.1
20260506233804 17 107 3.2 4.8 0.00 0.00 0.00 73 1011.1
20260506233304 17 107 0.0 1.6 0.00 0.00 0.00 71 1011.1
20260506232804 17 107 0.0 0.0 0.00 0.00 0.00 71 1011.2
20260506232306 17 107 0.0 0.0 0.00 0.00 0.00 71 1011.1
20260506231804 17 107 0.0 0.0 0.00 0.00 0.00 71 1011.1
20260506231305 17 107 0.0 0.0 0.00 0.00 0.00 71 1011.1
20260506230304 17 107 0.0 0.0 0.00 0.00 0.00 71 1011.3
20260506225803 17 107 0.0 0.0 0.00 0.00 0.00 71 1011.3
20260506224803 17 107 0.0 0.0 0.00 0.00 0.00 71 1011.3
20260506224304 17 107 0.0 0.0 0.00 0.00 0.00 71 1011.3
20260506223804 17 107 0.0 0.0 0.00 0.00 0.00 71 1011.3
20260506223304 17 107 0.0 0.0 0.00 0.00 0.00 71 1011.3
20260506222804 17 107 0.0 0.0 0.00 0.00 0.00 71 1011.4
20260506221804 17 107 0.0 0.0 0.00 0.00 0.00 70 1011.3
20260506221304 17 107 0.0 0.0 0.00 0.00 0.00 69 1011.3
20260506220818 18 107 0.0 0.0 0.00 0.00 0.00 68 1011.3
20260506215306 18 107 3.2 4.8 0.00 0.00 0.00 68 1011.3
20260506214804 18 107 0.0 8.0 0.00 0.00 0.00 68 1011.3
20260506214304 18 108 1.6 3.2 0.00 0.00 0.00 68 1011.4
20260506213804 18 108 3.2 4.8 0.00 0.00 0.00 68 1011.4
20260506213304 18 107 3.2 8.0 0.00 0.00 0.00 68 1011.4
20260506212804 18 94 3.2 9.7 0.00 0.00 0.00 67 1011.3
20260506212306 18 96 1.6 8.0 0.00 0.00 0.00 68 1011.3
20260506210804 18 95 4.8 8.0 0.00 0.00 0.00 67 1011.1
20260506210303 18 96 1.6 9.7 0.00 0.00 0.00 67 1011.0
20260506205804 18 96 6.4 11.3 0.00 0.00 0.00 67 1010.9
20260506205306 18 109 4.8 11.3 0.00 0.00 0.00 67 1010.9
20260506204803 18 89 6.4 11.3 0.00 0.00 0.00 67 1010.9
20260506203804 18 89 3.2 11.3 0.00 0.00 0.00 67 1010.7
20260506203303 18 107 8.0 12.9 0.00 0.00 0.00 67 1010.7
20260506202804 18 102 6.4 12.9 0.00 0.00 0.00 67 1010.7
20260506202306 18 89 6.4 9.7 0.00 0.00 0.00 67 1010.7
20260506201803 18 112 3.2 11.3 0.00 0.00 0.00 68 1010.6
20260506201304 18 83 8.0 11.3 0.00 0.00 0.00 67 1010.6
20260506200804 18 100 8.0 12.9 0.00 0.00 0.00 67 1010.5
20260506200304 18 103 4.8 9.7 0.00 0.00 0.00 68 1010.4
20260506195803 18 114 4.8 9.7 0.00 0.00 0.00 68 1010.3
20260506195306 18 99 4.8 12.9 0.00 0.00 0.00 68 1010.3
20260506194804 18 96 6.4 11.3 0.00 0.00 0.00 68 1010.2
20260506194303 18 115 6.4 9.7 0.00 0.00 0.00 67 1010.2
20260506193304 18 100 8.0 11.3 0.00 0.00 0.00 66 1010.1
20260506192803 18 107 6.4 11.3 0.00 0.00 0.00 66 1009.9
20260506192306 19 87 8.0 14.5 0.00 0.00 0.00 66 1010.0
20260506191804 19 117 4.8 9.7 0.00 0.00 0.00 66 1009.9
20260506191303 19 117 6.4 9.7 0.00 0.00 0.00 66 1009.8
20260506190804 19 125 4.8 12.9 0.00 0.00 0.00 66 1009.8
20260506190303 19 135 4.8 11.3 0.00 0.00 0.00 66 1009.8
20260506185804 19 124 9.7 14.5 0.00 0.00 0.00 66 1009.7
20260506185306 19 134 9.7 14.5 0.00 0.00 0.00 66 1009.6
20260506184804 19 119 9.7 14.5 0.00 0.00 0.00 65 1009.5
20260506184304 19 119 6.4 14.5 0.00 0.00 0.00 65 1009.6
20260506183803 19 114 9.7 14.5 0.00 0.00 0.00 65 1009.5
20260506183304 19 113 8.0 12.9 0.00 0.00 0.00 64 1009.5
20260506182804 19 126 9.7 19.3 0.00 0.00 0.00 64 1009.5
20260506182306 20 118 9.7 19.3 0.00 0.00 0.00 63 1009.4
20260506181804 20 120 9.7 14.5 0.00 0.00 0.00 63 1009.5
20260506181304 20 122 6.4 12.9 0.00 0.00 0.00 64 1009.4
20260506180804 20 119 11.3 19.3 0.00 0.00 0.00 63 1009.5
20260506180303 20 127 11.3 19.3 0.00 0.00 0.00 63 1009.5
20260506175803 20 99 9.7 20.9 0.00 0.00 0.00 63 1009.4
20260506175306 20 69 9.7 19.3 0.00 0.00 0.00 63 1009.4
20260506174803 20 105 11.3 19.3 0.00 0.00 0.00 63 1009.5
20260506174305 20 101 11.3 20.9 0.00 0.00 0.00 62 1009.6
20260506173304 20 112 8.0 14.5 0.00 0.00 0.00 62 1009.7
20260506172806 20 109 6.4 19.3 0.00 0.00 0.00 63 1009.7
20260506172307 20 90 9.7 14.5 0.00 0.00 0.00 62 1009.7
20260506170805 20 119 8.0 20.9 0.00 0.00 0.00 61 1009.7
20260506170305 20 75 9.7 20.9 0.00 0.00 0.00 61 1009.6
20260506165804 20 59 9.7 19.3 0.00 0.00 0.00 62 1009.7
20260506165306 20 87 11.3 19.3 0.00 0.00 0.00 61 1009.6
20260506164804 20 127 11.3 20.9 0.00 0.00 0.00 61 1009.5
20260506164304 21 103 11.3 22.5 0.00 0.00 0.00 61 1009.6
20260506163304 21 111 16.1 24.1 0.00 0.00 0.00 59 1009.6
20260506162804 21 78 11.3 20.9 0.00 0.00 0.00 59 1009.6
20260506162307 21 85 11.3 22.5 0.00 0.00 0.00 59 1009.5